Regional Weather Roundup
Issued by NWS Grand Forks, ND

Home | Current Version | Previous Version | Text Only | Print | Product List | Glossary Off
Versions: 1 2 3 4 5 6 7 8 9 10 11 12 13 14 15 16 17 18 19 20 21 22 23 24 25 26 27 28 29 30 31 32 33 34 35 36 37 38 39 40 41 42 43 44 45 46 47 48 49 50

000
ASUS43 KFGF 240010
RWRFGF
PRAIRIE TO PINES  WEATHER ROUNDUP
NATIONAL WEATHER SERVICE EASTERN NORTH DAKOTA/GRAND FORKS ND
700 PM CDT WED APR 23 2014

 **SATELLITE DATA USED TO AUGMENT SKY COVER AT AUTOMATED STATIONS**
 *****  WEATHER ACROSS EASTERN NORTH DAKOTA  *****

CITY           SKY/WX    TMP DP  RH WIND       PRES   REMARKS
GRAND FORKS    LGT RAIN  42  39  89 SE24G30   29.85S
6HR MIN TEMP:  42; 6HR MAX TEMP:  45; 6HR PCP:  0.35;

GRAND FRKS AFB LGT RAIN  41  41 100 SE20G26   29.83S
GRAND FRKS NWS   N/A     39 N/A N/A SE23        N/A
DEVILS LAKE    CLOUDY    37  32  81 SE24      29.73R
6HR MIN TEMP:  37; 6HR MAX TEMP:  43; 6HR PCP:  0.27;

FARGO          LGT RAIN  42  38  85 SE22G29   29.80F
WAHPETON ARPT  CLOUDY    41  34  75 SE23G32   29.79F
$$

 ***** WEATHER ACROSS CENTRAL AND WESTERN NORTH DAKOTA  *****

CITY           SKY/WX    TMP DP  RH WIND       PRES   REMARKS
BISMARCK       CLOUDY    53  40  61 W20G29    29.63R
6HR MIN TEMP:  53; 6HR MAX TEMP:  58; 6HR PCP:  0.01;

MINOT          CLOUDY    45  42  89 SE14      29.59R
6HR MIN TEMP:  45; 6HR MAX TEMP:  50; 6HR PCP:  0.07;

JAMESTOWN      CLOUDY    41  39  93 SE21G29   29.69R
6HR MIN TEMP:  41; 6HR MAX TEMP:  49; 6HR PCP:  0.21;

MINOT AFB      CLOUDY    44  44  99 SE14G25   29.60R
GARRISON         N/A     46  42  86 NW15      29.60R
WILLISTON      CLOUDY    53  40  61 NW10      29.57S
6HR MIN TEMP:  46; 6HR MAX TEMP:  58; 6HR PCP:  0.09;

DICKINSON      MOSUNNY   55  27  34 W23G29    29.61R
6HR MIN TEMP:  47; 6HR MAX TEMP:  60; 6HR PCP: TRACE;

HETTINGER      MOSUNNY   53  32  44 W21G31    29.66R
6HR MIN TEMP:  49; 6HR MAX TEMP:  57;

$$

 *****  OTHER AIRPORT OBSERVATIONS IN OUR AREA  *****

CITY           SKY/WX    TMP DP  RH WIND       PRES   REMARKS
WALHALLA       MIX PCPN  41  41 100 SE20      29.84S
GRAFTON AIRPOR MIX PCPN  41  41 100 SE23      29.86S
VALLEY CITY AR FAIR      39  39 100 SE18G33   29.72F
CANDO          MIX PCPN  39  37  93 SE28G39   29.73R
CAVALIER APRT  MIX PCPN  43  41  93 SE13G21   29.86R
GWINNER        MOCLDY    43  41  93 SE24G30   29.73S
ROLLA          MIX PCPN  37  37 100 SE32G40   29.72S
 ***** THE ABOVE OBSERVATIONS ARE NON NWS ARE NOT QUALITY
       CONTROLLED AND MAY MIS-REPORT RAIN FOR SNOW...
$$

  *****  WEATHER ACROSS NORTHERN MINNESOTA  *****

CITY           SKY/WX    TMP DP  RH WIND       PRES   REMARKS
FLAG ISLAND    CLOUDY    50  23  34 E9        29.90F
WARROAD        CLOUDY    52  28  40 S10       29.90F
ROSEAU         CLOUDY    52  28  40 S13       29.89F
HALLOCK        DRIZZLE   45  43  93 SE14      29.89R
THF RVR FALLS  CLOUDY    43  37  81 SE15      29.91R
6HR MIN TEMP:  43; 6HR MAX TEMP:  52; 6HR PCP:  0.09;

BAUDETTE       CLOUDY    53  24  32 S10       29.91S
6HR MIN TEMP:  53; 6HR MAX TEMP:  58;

WASKISH        CLOUDY    50  27  40 SE8       29.92F
CROOKSTON      MIX PCPN  39  39 100 SE14      29.89R
$$
  *****  WEATHER ACROSS CENTRAL AND WEST MINNESOTA  *****

CITY           SKY/WX    TMP DP  RH WIND       PRES   REMARKS
FOSSTON        LGT RAIN  37  36  93 SE13G24   29.89F
BEMIDJI        RAIN      38  35  90 SE15      29.93R
PARK RAPIDS    LGT SNOW  34  34 100 E8        29.93R FOG
6HR MIN TEMP:  34; 6HR MAX TEMP:  49; 6HR PCP:  0.42;

ELBOW LAKE     CLOUDY    41  36  83 E23G31    29.81F
6HR MIN TEMP:  40; 6HR MAX TEMP:  42; 6HR PCP:  0.09;

WADENA         CLOUDY    36  34  93 E14       29.89F
DETROIT LAKES  TSTM      37  36  93 SE18      29.87R
MOORHEAD       LGT RAIN  43  41  93 SE18      29.82F
FERGUS FALLS   CLOUDY    41  36  81 SE26G32   29.78S THUNDER
MORRIS MN      CLOUDY    43  36  75 SE25G31   29.81S
STAPLES        RAIN      34  34 100 E7        29.92S
$$
  *****  WEATHER ELSEWHERE ACROSS MINNESOTA  *****

CITY           SKY/WX    TMP DP  RH WIND       PRES   REMARKS
DULUTH         CLOUDY    42  23  46 E13       29.99F
6HR MIN TEMP:  42; 6HR MAX TEMP:  50;

INTRNTL FALLS  CLOUDY    52  24  33 SE10      29.94F
6HR MIN TEMP:  52; 6HR MAX TEMP:  56;

ELY            CLOUDY    46  18  31 SE8       30.01S
CLOQUET        CLOUDY    41  25  52 E9        29.98F
WHEATON        CLOUDY    45  39  81 E28G36    29.79F
BRAINERD       RAIN      42  35  76 VRB3      29.96R
6HR MIN TEMP:  42; 6HR MAX TEMP:  55; 6HR PCP:  0.16;

HIBBING        CLOUDY    49  24  37 SE12      29.96F
6HR MIN TEMP:  49; 6HR MAX TEMP:  56;

ALEXANDRIA     CLOUDY    40  37  89 SE18G25   29.87S
6HR MIN TEMP:  39; 6HR MAX TEMP:  40; 6HR PCP:  0.08;

SAINT CLOUD    CLOUDY    41  37  86 E10G22    29.92F
6HR MIN TEMP:  41; 6HR MAX TEMP:  45; 6HR PCP:  0.28;

MINNEAPOLIS    CLOUDY    42  38  85 SE14      29.94F
6HR MIN TEMP:  40; 6HR MAX TEMP:  44; 6HR PCP:  0.19;

$$

  *****  WEATHER ACROSS SOUTH DAKOTA  *****

CITY           SKY/WX    TMP DP  RH WIND       PRES   REMARKS
SIOUX FALLS    PTSUNNY   59  41  51 SE23G38   29.64R
6HR MIN TEMP:  56; 6HR MAX TEMP:  65;

BROOKINGS      NOT AVBL
WATERTOWN      CLOUDY    48  38  68 SE25G36   29.67F
6HR MIN TEMP:  45; 6HR MAX TEMP:  53;

HURON          CLOUDY    67  42  40 SE18G28   29.55R
6HR MIN TEMP:  62; 6HR MAX TEMP:  70;

SISSETON         N/A     42  37  82 SE20G30   29.73F
ABERDEEN       CLOUDY    49  43  80 E24G32    29.60F
6HR MIN TEMP:  49; 6HR MAX TEMP:  59; 6HR PCP:  0.06;

MITCHELL       PTSUNNY   68  45  43 SE24G35   29.55R
PIERRE         MOSUNNY   60  42  51 NW32G45   29.58R
6HR MIN TEMP:  60; 6HR MAX TEMP:  73;

MOBRIDGE       CLOUDY    57  41  55 NW21      29.60R
RAPID CITY     PTSUNNY   57  36  45 N25G37    29.65R
6HR MIN TEMP:  53; 6HR MAX TEMP:  65;

$$

  *****  SOME WEATHER IN NEARBY STATES *****

CITY           SKY/WX    TMP DP  RH WIND       PRES   REMARKS
GLASGOW MT     PTSUNNY   59  20  22 W26G36    29.55S
6HR MIN TEMP:  51; 6HR MAX TEMP:  60;

GREAT FALLS MT PTSUNNY   49  26  41 SW29G36   29.70R
6HR MIN TEMP:  44; 6HR MAX TEMP:  54;

CHEYENNE WY    CLOUDY    50  18  28 NW25G39   29.74R
6HR MIN TEMP:  50; 6HR MAX TEMP:  59;

SCOTTSBLUFF NE CLOUDY    61  13  15 W16       29.69R
6HR MIN TEMP:  61; 6HR MAX TEMP:  67;

OMAHA NE       CLOUDY    56  44  64 SE25G39   29.63F
6HR MIN TEMP:  51; 6HR MAX TEMP:  58; 6HR PCP:  0.02;

DES MOINES IA  CLOUDY    49  40  71 SE13G22   29.84F
6HR MIN TEMP:  46; 6HR MAX TEMP:  49; 6HR PCP:  0.16;

DAVENPORT IA   LGT RAIN  48  40  73 SE10      30.01F
6HR MIN TEMP:  48; 6HR MAX TEMP:  56; 6HR PCP:  0.09;

CHICAGO IL     CLOUDY    44  20  38 E8        30.11F
6HR MIN TEMP:  44; 6HR MAX TEMP:  51;

EAU CLAIRE WI  LGT RAIN  43  38  82 SE8       29.99F
6HR MIN TEMP:  43; 6HR MAX TEMP:  53; 6HR PCP:  0.02;

LA CROSSE WI   CLOUDY    46  36  68 E9        29.98F
6HR MIN TEMP:  45; 6HR MAX TEMP:  53; 6HR PCP:  0.01;

$$

  *****  SOME NATIONAL WEATHER *****

CITY           SKY/WX    TMP DP  RH WIND       PRES   REMARKS
LA GUARDIA NY  MOCLDY    48  30  49 NW26G41   29.74R
6HR MIN TEMP:  48; 6HR MAX TEMP:  58;

RALEIGH NC     PTCLDY    66  26  22 CALM      29.87R
6HR MIN TEMP:  66; 6HR MAX TEMP:  71;

ATLANTA GA     CLEAR     71  33  24 NW10      29.91S
6HR MIN TEMP:  71; 6HR MAX TEMP:  76;

NEW ORLEANS LA PTCLDY    79  52  38 NW3       29.89S
6HR MIN TEMP:  79; 6HR MAX TEMP:  83;

OKLAHOMA CITY  CLOUDY    79  53  40 S20G26    29.68F
6HR MIN TEMP:  79; 6HR MAX TEMP:  87;

ALBUQUERQUE NM CLOUDY    69  11  10 W30G39    29.78R
6HR MIN TEMP:  69; 6HR MAX TEMP:  77;

SALT LAKE CITY MOSUNNY   52  18  25 MISG        N/A
6HR MIN TEMP:  46; 6HR MAX TEMP:  52; 6HR PCP: TRACE;

LOS ANGELES CA PTSUNNY   67  44  43 SW12      29.92F
6HR MIN TEMP:  65; 6HR MAX TEMP:  68;

BOISE ID       MOSUNNY   55  28  35 NE5       29.96F



USA.gov is the U.S. government's official web portal to all federal, state and local government web resources and services.